Location: White Mills Observatory
(37.5374°N, 86.0303°W)
Time: 07:50:22
(UTC-05:00)

Amateur Radio Satellites - All Passes

Search period start: 22 December 2014 07:20
Search period end: 23 December 2014 07:20
Location: White Mills Observatory, 37.5374°N, 86.0303°W

Satellite Date Start Highest point End Downlink Frequencies (MHz)
Time Altitude Azimuth
VERMONT LUNAR 22 Dec 07:23:25 07:26:56 76° 200° (SSW) 07:30:27 437.305
STRAND 1 22 Dec 07:30:00 07:34:44 38° 262° (W) 07:39:29 437.568
SO-50 22 Dec 07:32:53 07:36:24 20° 250° (WSW) 07:39:54 436.795
PHONESAT 2.4 22 Dec 07:45:19 07:48:56 80° 200° (SSW) 07:52:34 2401.200-2431.200
Cubesat XI-IV 22 Dec 07:57:32 08:02:17 34° 291° (WNW) 08:07:00 437.490
HO-68 22 Dec 08:22:00 08:26:38 18° 92° (E) 08:31:14 435.675
CUTE-I 22 Dec 08:31:20 08:34:47 18° 296° (WNW) 08:38:13 437.470
CUTE 1.7 + AOD 2 22 Dec 08:35:49 08:37:56 13° 92° (E) 08:40:03 437.475
VERMONT LUNAR 22 Dec 09:02:33 09:04:53 17° 215° (SW) 09:07:12 437.305
MaSat-1 22 Dec 09:10:32 09:12:39 32° 296° (WNW) 09:14:42 437.345
Oscar 11 22 Dec 09:18:26 09:20:18 13° 91° (E) 09:22:10 145.826/435.025
AAUSAT CUBESAT 2 22 Dec 09:19:43 09:23:20 27° 96° (E) 09:26:55 437.432
CUSAT 1 22 Dec 09:21:42 09:24:51 27° 87° (E) 09:28:49 437.405
PHONESAT 2.4 22 Dec 09:24:42 09:27:17 19° 214° (SW) 09:29:52 2401.200-2431.200
UKube-1 22 Dec 09:28:48 09:29:58 11° 92° (E) 09:31:08 .
BRITE-PL 22 Dec 09:30:07 09:34:55 70° 101° (ESE) 09:40:07 437.365/2234.400
UNISAT 6 22 Dec 09:33:12 09:35:53 16° 65° (ENE) 09:38:36 437.425
POLYITAN 1 22 Dec 09:37:41 09:38:22 10° 64° (ENE) 09:39:03 437.675
NANOSAT C BR1 22 Dec 09:38:19 09:38:58 10° 64° (ENE) 09:39:37 145.865
CANX-2 22 Dec 09:39:12 09:43:33 85° 102° (ESE) 09:47:50 2200.000
GOMX 1 22 Dec 09:47:43 09:52:35 76° 102° (ESE) 09:57:47 467.674
CUBEBUG 2 22 Dec 09:49:20 09:52:49 20° 94° (E) 09:56:19 437.445
QB50P1 22 Dec 09:51:08 09:53:33 15° 66° (ENE) 09:55:59 145.935-145.965
ZACube-1 22 Dec 09:52:47 09:55:27 15° 92° (E) 09:58:08 437.345
COMPASS 1 22 Dec 09:55:53 10:00:10 86° 102° (ESE) 10:04:24 437.405
DELFI C3 22 Dec 10:01:47 10:05:30 32° 97° (E) 10:09:11 145.870
ANTELSAT 22 Dec 10:03:48 10:07:45 34° 71° (ENE) 10:11:48 437.575/2403.000
SEEDS 22 Dec 10:03:59 10:08:14 63° 285° (WNW) 10:12:26 437.485
DOVE 4 22 Dec 10:04:50 10:09:43 84° 102° (ESE) 10:14:51 437.250
HO-68 22 Dec 10:07:48 10:14:56 74° 288° (WNW) 10:22:01 435.675
CUTE 1.7 + AOD 2 22 Dec 10:09:57 10:14:05 46° 287° (WNW) 10:18:11 437.475
CINEMA 3 22 Dec 10:16:59 10:21:47 68° 101° (E) 10:26:44 145.822/145.860
FUNcube-1 22 Dec 10:17:53 10:21:51 29° 96° (E) 10:25:49 145.935
POPSAT HIP 1 22 Dec 10:18:37 10:22:18 30° 71° (ENE) 10:26:00 437.405
O/OREOS (USA 219) 22 Dec 10:19:53 10:23:59 33° 63° (ENE) 10:28:06 437.305
DANDE 22 Dec 10:21:45 10:25:11 67° 281° (WNW) 10:29:51 436.750
UWE-3 22 Dec 10:23:00 10:27:21 40° 98° (E) 10:31:44 435.000/436.395/437.385
DX 1 22 Dec 10:33:04 10:37:24 68° 102° (ESE) 10:41:43 434.975-435.025
BUGSAT 1 22 Dec 10:35:38 10:39:25 37° 72° (ENE) 10:43:10 437.445
TIGRISAT 22 Dec 10:37:41 10:42:01 82° 76° (ENE) 10:46:29 435.000
HUMSAT D 22 Dec 10:38:38 10:42:21 27° 96° (E) 10:46:03 437.325/437.525
AISAT 22 Dec 10:44:04 10:47:56 29° 97° (E) 10:51:47 437.250
DUCHIFAT 1 22 Dec 10:45:07 10:49:15 63° 75° (ENE) 10:53:25 145.980
Oscar 11 22 Dec 10:52:31 10:56:44 50° 286° (WNW) 11:00:56 145.826/435.025
AAUSAT CUBESAT 2 22 Dec 10:55:32 10:58:51 22° 291° (WNW) 11:02:08 437.432
QB50P2 22 Dec 10:59:59 11:04:12 83° 258° (WSW) 11:08:27 145.880/145.840
UKube-1 22 Dec 11:02:12 11:06:27 57° 286° (WNW) 11:10:41 .
CUSAT 1 22 Dec 11:05:16 11:08:04 18° 295° (WNW) 11:11:25 437.405
UNISAT 6 22 Dec 11:08:07 11:12:16 43° 261° (W) 11:16:32 437.425
POLYITAN 1 22 Dec 11:09:35 11:13:44 63° 259° (W) 11:17:56 437.675
NANOSAT C BR1 22 Dec 11:10:07 11:14:16 63° 259° (W) 11:18:28 145.865
BRITE-PL 22 Dec 11:10:55 11:12:58 13° 295° (WNW) 11:15:04 437.365/2234.400
YUBILEINY 22 Dec 11:12:02 11:20:36 59° 79° (E) 11:29:09 435.215
QB50P1 22 Dec 11:25:06 11:29:05 41° 261° (W) 11:33:04 145.935-145.965
CUBEBUG 2 22 Dec 11:25:16 11:29:33 37° 288° (WNW) 11:33:54 437.445
ZACube-1 22 Dec 11:27:39 11:32:00 46° 287° (WNW) 11:36:24 437.345
GOMX 1 22 Dec 11:28:27 11:30:10 12° 296° (WNW) 11:31:55 467.674
VELOX 1 22 Dec 11:35:50 11:40:15 74° 285° (WNW) 11:44:40 145.980
50 SAT 22 Dec 11:36:54 11:41:04 77° 284° (WNW) 11:45:12 437.505
RS-15 22 Dec 11:37:31 11:48:10 60° 112° (ESE) 11:58:46 29.354- 29.394
DELFI C3 22 Dec 11:37:43 11:40:30 18° 292° (WNW) 11:43:17 145.870
ANTELSAT 22 Dec 11:41:30 11:44:37 19° 267° (W) 11:47:49 437.575/2403.000
ESTCUBE 1 22 Dec 11:45:12 11:49:36 54° 100° (E) 11:53:59 437.505/2401.250
DOVE 4 22 Dec 11:45:55 11:46:51 11° 297° (WNW) 11:47:47 437.250
SPROUT 22 Dec 11:46:30 11:47:14 10° 91° (E) 11:47:59 437.525
FUNcube-1 22 Dec 11:54:20 11:58:03 25° 291° (WNW) 12:01:46 145.935
POPSAT HIP 1 22 Dec 11:55:11 11:58:13 19° 266° (W) 12:01:15 437.405
CINEMA 3 22 Dec 11:56:19 11:58:26 13° 295° (WNW) 12:00:35 145.822/145.860
HO-68 22 Dec 11:58:27 12:01:25 13° 306° (NW) 12:04:23 435.675
O/OREOS (USA 219) 22 Dec 11:59:49 12:03:08 20° 259° (W) 12:06:28 437.305
UWE-3 22 Dec 12:00:20 12:03:35 19° 293° (WNW) 12:06:51 435.000/436.395/437.385
ISS 22 Dec 12:11:27 12:13:21 15° 129° (SE) 12:15:15 145.825
DX 1 22 Dec 12:12:17 12:13:03 10° 297° (WNW) 12:13:49 434.975-435.025
BUGSAT 1 22 Dec 12:12:44 12:15:02 15° 267° (W) 12:17:20 437.445
BEESAT 3 22 Dec 12:12:57 12:15:12 15° 109° (ESE) 12:17:29 437.485
HUMSAT D 22 Dec 12:14:32 12:18:00 24° 291° (WNW) 12:21:28 437.325/437.525
CUBEBUG 1 22 Dec 12:19:10 12:23:28 64° 285° (WNW) 12:27:45 437.445
AISAT 22 Dec 12:20:53 12:24:24 23° 292° (WNW) 12:27:55 437.250
Oscar 19 22 Dec 12:27:57 12:31:50 22° 66° (ENE) 12:35:45 437.125/150
PCSat 22 Dec 12:30:36 12:33:13 14° 103° (ESE) 12:35:50 145.827
JUGNU 22 Dec 12:49:21 12:52:06 13° 177° (S) 12:54:52 437.505
ITAMSAT 1 22 Dec 12:49:49 12:52:09 13° 62° (ENE) 12:54:29 435.822/435.867
BEESAT 2 22 Dec 12:52:52 12:56:38 37° 114° (ESE) 13:00:28 435.950
TISAT 1 22 Dec 13:09:41 13:13:54 71° 284° (WNW) 13:18:06 437.305
YUBILEINY 22 Dec 13:09:55 13:16:44 27° 277° (W) 13:23:34 435.215
SWISSCUBE 22 Dec 13:13:46 13:17:00 18° 94° (E) 13:20:13 437.505
ITUPSAT 1 22 Dec 13:15:13 13:18:16 17° 93° (E) 13:21:17 437.325
SPROUT 22 Dec 13:19:25 13:23:40 58° 285° (WNW) 13:27:53 437.525
ESTCUBE 1 22 Dec 13:23:48 13:25:59 14° 296° (WNW) 13:28:10 437.505/2401.250
BEESAT 22 Dec 13:37:36 13:41:47 30° 97° (E) 13:45:55 436.000
ISS 22 Dec 13:46:24 13:49:37 49° 323° (NW) 13:52:51 145.825
BEESAT 3 22 Dec 13:49:03 13:52:58 44° 304° (NW) 13:56:57 437.485
RS-15 22 Dec 13:50:54 14:00:55 40° 315° (NW) 14:11:06 29.354- 29.394
AO-7 22 Dec 13:54:46 13:58:28 14° 49° (NE) 14:02:09 29.400- 29.500
M-CUBED/EXP-1 PRIME 22 Dec 13:54:48 13:56:24 12° 94° (E) 13:57:57 437.505
SRMSAT 22 Dec 13:56:49 13:59:20 13° 174° (S) 14:01:50 437.500
Oscar 19 22 Dec 14:06:03 14:10:52 41° 261° (W) 14:15:45 437.125/150
AIST 2 22 Dec 14:07:00 14:11:13 73° 301° (WNW) 14:15:31 435.215
PCSat 22 Dec 14:10:34 14:15:57 70° 299° (WNW) 14:21:23 145.827
KKS-1 22 Dec 14:11:04 14:12:52 12° 92° (E) 14:14:40 437.445
ITAMSAT 1 22 Dec 14:25:49 14:30:59 73° 257° (WSW) 14:36:10 435.822/435.867
BEESAT 2 22 Dec 14:31:55 14:35:00 20° 311° (NW) 14:38:07 435.950
Gurwin Techsat 1B 22 Dec 14:32:29 14:37:47 78° 75° (ENE) 14:43:06 435.225
HORYU 2 22 Dec 14:37:31 14:41:25 30° 70° (ENE) 14:45:21 437.375
JUGNU 22 Dec 14:37:59 14:40:17 12° 187° (S) 14:42:35 437.505
SWISSCUBE 22 Dec 14:50:32 14:55:01 42° 289° (WNW) 14:59:27 437.505
ITUPSAT 1 22 Dec 14:51:49 14:56:21 45° 288° (WNW) 15:00:51 437.325
AUBIESAT-1 22 Dec 15:00:23 15:04:36 71° 106° (ESE) 15:08:24 437.475
GONETS M04 22 Dec 15:14:21 15:17:32 12° 60° (ENE) 15:20:42
BEESAT 22 Dec 15:15:35 15:19:29 26° 292° (WNW) 15:23:22 436.000
ISS 22 Dec 15:25:41 15:26:50 11° 342° (NNW) 15:27:59 145.825
M-CUBED/EXP-1 PRIME 22 Dec 15:27:41 15:31:48 47° 292° (WNW) 15:35:32 437.505
JAS-2 22 Dec 15:33:08 15:38:15 21° 63° (ENE) 15:43:04 435.910
STARS 22 Dec 15:37:09 15:41:37 79° 102° (ESE) 15:46:04 437.465
AO-7 22 Dec 15:41:27 15:49:39 66° 68° (ENE) 15:57:55 29.400- 29.500
SRMSAT 22 Dec 15:45:05 15:47:39 13° 185° (S) 15:50:13 437.500
KKS-1 22 Dec 15:45:26 15:49:48 54° 286° (WNW) 15:54:10 437.445
PCSat 22 Dec 15:58:44 16:00:22 11° 318° (NW) 16:02:00 145.827
RS-15 22 Dec 16:11:30 16:17:41 16° 348° (NNW) 16:23:58 29.354- 29.394
HORYU 2 22 Dec 16:14:36 16:18:05 22° 265° (W) 16:21:35 437.375
Gurwin Techsat 1B 22 Dec 16:16:49 16:18:17 11° 270° (W) 16:19:44 435.225
AIST 1 22 Dec 16:55:43 17:00:06 84° 277° (W) 17:04:29
GONETS M04 22 Dec 17:07:19 17:16:04 71° 81° (E) 17:24:43
MOZHAYETS 4 22 Dec 17:09:49 17:14:04 35° 97° (E) 17:18:16
JAS-2 22 Dec 17:14:59 17:22:40 76° 257° (WSW) 17:29:41 435.910
AO-7 22 Dec 17:36:28 17:42:55 25° 265° (W) 17:49:27 29.400- 29.500
Cubesat XI-IV 22 Dec 17:37:49 17:42:41 38° 70° (ENE) 17:47:34 437.490
CUTE-I 22 Dec 18:09:56 18:15:14 76° 75° (ENE) 18:20:33 437.470
RS-15 22 Dec 18:28:35 18:36:23 21° 25° (NNE) 18:44:22 29.354- 29.394
CUBESAT XI-V 22 Dec 18:39:28 18:43:04 22° 95° (E) 18:46:39 437.345
ISS 22 Dec 18:40:36 18:42:31 15° 23° (NNE) 18:44:25 145.825
MaSat-1 22 Dec 18:41:24 18:43:48 54° 248° (WSW) 18:46:20 437.345
PRISM 22 Dec 18:42:40 18:46:42 49° 100° (E) 18:50:41 437.425
MOZHAYETS 4 22 Dec 18:47:39 18:51:02 21° 293° (WNW) 18:54:24
HO-68 22 Dec 18:51:43 18:54:16 12° 53° (NE) 18:56:50 435.675
GONETS M04 22 Dec 19:05:49 19:11:56 22° 279° (W) 19:18:02
JAS-2 22 Dec 19:05:59 19:08:21 12° 271° (W) 19:10:42 435.910
Cubesat XI-IV 22 Dec 19:18:34 19:22:50 24° 265° (W) 19:27:07 437.490
DANDE 22 Dec 19:21:23 19:26:33 18° 66° (ENE) 19:32:00 436.750
STRAND 1 22 Dec 19:42:02 19:47:09 84° 103° (ESE) 19:52:15 437.568
CUTE-I 22 Dec 19:54:05 19:55:49 12° 270° (W) 19:57:33 437.470
CUSAT 1 22 Dec 20:00:20 20:07:42 38° 74° (ENE) 20:15:27 437.405
SO-50 22 Dec 20:05:23 20:08:50 22° 110° (ESE) 20:12:22 436.795
AAUSAT CUBESAT 2 22 Dec 20:10:19 20:12:50 16° 67° (ENE) 20:15:21 437.432
ISS 22 Dec 20:16:13 20:19:30 87° 40° (NE) 20:22:46 145.825
CUBESAT XI-V 22 Dec 20:16:27 20:20:30 31° 289° (WNW) 20:24:32 437.345
PRISM 22 Dec 20:19:58 20:21:46 13° 295° (WNW) 20:23:34 437.425
CANX-2 22 Dec 20:30:23 20:34:28 46° 74° (ENE) 20:38:35 2200.000
HO-68 22 Dec 20:33:34 20:40:41 70° 71° (ENE) 20:47:49 435.675
BRITE-PL 22 Dec 20:40:07 20:44:13 60° 75° (ENE) 20:48:18 437.365/2234.400
RS-15 22 Dec 20:40:37 20:51:47 60° 54° (NE) 21:03:24 29.354- 29.394
COMPASS 1 22 Dec 20:45:36 20:49:37 45° 73° (ENE) 20:53:41 437.405
CUBEBUG 2 22 Dec 20:47:53 20:49:41 13° 64° (ENE) 20:51:31 437.445
DELFI C3 22 Dec 20:49:29 20:52:11 17° 68° (ENE) 20:54:54 145.870
SEEDS 22 Dec 20:54:09 20:58:22 69° 76° (ENE) 21:02:38 437.485
GOMX 1 22 Dec 20:54:56 20:59:00 61° 75° (ENE) 21:03:08 467.674
CUTE 1.7 + AOD 2 22 Dec 21:00:40 21:04:56 84° 258° (WSW) 21:09:15 437.475
DANDE 22 Dec 21:02:46 21:10:51 85° 82° (E) 21:19:35 436.750
DOVE 4 22 Dec 21:09:27 21:13:32 65° 75° (ENE) 21:17:43 437.250
FUNcube-1 22 Dec 21:13:17 21:16:03 17° 67° (ENE) 21:18:51 145.935
BEESAT 2 22 Dec 21:15:29 21:18:05 16° 47° (NE) 21:20:40 435.950
CINEMA 3 22 Dec 21:17:38 21:21:36 45° 73° (ENE) 21:25:41 145.822/145.860
UWE-3 22 Dec 21:19:19 21:22:42 24° 69° (ENE) 21:26:10 435.000/436.395/437.385
STRAND 1 22 Dec 21:24:12 21:25:35 11° 299° (WNW) 21:26:59 437.568
DX 1 22 Dec 21:26:55 21:31:03 45° 73° (ENE) 21:35:11 434.975-435.025
HUMSAT D 22 Dec 21:30:23 21:32:50 16° 66° (ENE) 21:35:18 437.325/437.525
AISAT 22 Dec 21:41:03 21:44:24 22° 68° (ENE) 21:47:45 437.250
CUSAT 1 22 Dec 21:43:12 21:50:50 48° 268° (W) 21:58:50 437.405
AAUSAT CUBESAT 2 22 Dec 21:44:11 21:48:08 40° 262° (W) 21:52:08 437.432
SO-50 22 Dec 21:44:55 21:49:07 37° 307° (NW) 21:53:27 436.795
Oscar 11 22 Dec 21:45:03 21:49:23 85° 257° (WSW) 21:53:45 145.826/435.025
UKube-1 22 Dec 21:55:08 21:59:28 86° 257° (WSW) 22:03:49 .
CANX-2 22 Dec 22:08:36 22:10:38 13° 268° (W) 22:12:41 2200.000
BEESAT 3 22 Dec 22:10:23 22:14:30 59° 58° (ENE) 22:18:34 437.485
YUBILEINY 22 Dec 22:21:16 22:23:31 11° 75° (ENE) 22:25:45 435.215
CUBEBUG 2 22 Dec 22:21:50 22:25:53 51° 261° (W) 22:30:04 437.445
ZACube-1 22 Dec 22:21:50 22:26:00 73° 258° (WSW) 22:30:17 437.345
50 SAT 22 Dec 22:23:14 22:27:06 49° 74° (ENE) 22:31:01 437.505
DELFI C3 22 Dec 22:23:25 22:27:09 34° 262° (W) 22:30:56 145.870
COMPASS 1 22 Dec 22:23:31 22:25:33 13° 268° (W) 22:27:37 437.405
HO-68 22 Dec 22:23:56 22:28:54 20° 267° (W) 22:33:53 435.675
AIST 2 22 Dec 22:30:59 22:35:03 40° 55° (NE) 22:39:02 435.215
VELOX 1 22 Dec 22:31:40 22:36:05 78° 76° (ENE) 22:40:30 145.980
TIGRISAT 22 Dec 22:32:13 22:35:47 21° 94° (E) 22:39:21 435.000
DUCHIFAT 1 22 Dec 22:34:24 22:36:04 12° 92° (E) 22:37:44 145.980
ESTCUBE 1 22 Dec 22:43:09 22:47:22 40° 72° (ENE) 22:51:36 437.505/2401.250
DANDE 22 Dec 22:48:03 22:53:35 20° 276° (W) 22:59:22 436.750
FUNcube-1 22 Dec 22:48:16 22:52:06 35° 263° (W) 22:56:01 145.935
QB50P2 22 Dec 22:48:34 22:51:36 19° 94° (E) 22:54:38 145.880/145.840
BEESAT 2 22 Dec 22:52:34 22:56:38 52° 244° (WSW) 23:00:38 435.950
RS-15 22 Dec 22:53:37 23:03:39 38° 253° (WSW) 23:14:07 29.354- 29.394
UWE-3 22 Dec 22:55:44 22:59:09 24° 265° (W) 23:02:40 435.000/436.395/437.385
CINEMA 3 22 Dec 22:57:19 22:59:06 12° 269° (W) 23:00:54 145.822/145.860
POLYITAN 1 22 Dec 22:57:53 23:01:24 24° 96° (E) 23:04:54 437.675
NANOSAT C BR1 22 Dec 22:57:58 23:01:25 24° 96° (E) 23:04:51 145.865
PCSat 22 Dec 23:00:27 23:05:50 61° 60° (ENE) 23:11:10 145.827
UNISAT 6 22 Dec 23:01:56 23:06:29 45° 99° (E) 23:10:59 437.425
HUMSAT D 22 Dec 23:04:25 23:08:16 39° 262° (W) 23:12:13 437.325/437.525
DX 1 22 Dec 23:05:14 23:07:29 14° 267° (W) 23:09:45 434.975-435.025
QB50P1 22 Dec 23:12:27 23:16:22 35° 98° (E) 23:20:16 145.935-145.965
CUBEBUG 1 22 Dec 23:13:22 23:17:44 83° 76° (ENE) 23:22:06 437.445
AISAT 22 Dec 23:16:54 23:20:49 31° 263° (W) 23:24:45 437.250
ANTELSAT 22 Dec 23:33:59 23:38:44 81° 284° (WNW) 23:43:27 437.575/2403.000
POPSAT HIP 1 22 Dec 23:41:12 23:45:29 78° 102° (ESE) 23:49:46 437.405
BEESAT 3 22 Dec 23:51:04 23:52:07 11° 253° (WSW) 23:53:10 437.485
BUGSAT 1 22 Dec 23:55:04 23:59:09 90° 290° (WNW) 00:03:15 437.445
TISAT 1 23 Dec 00:00:15 00:04:24 66° 75° (ENE) 00:08:34 437.305
50 SAT 23 Dec 00:01:39 00:02:35 11° 269° (W) 00:03:32 437.505
DUCHIFAT 1 23 Dec 00:08:03 00:12:11 50° 286° (WNW) 00:16:18 145.980
TIGRISAT 23 Dec 00:08:17 00:12:34 36° 289° (WNW) 00:16:51 435.000
YUBILEINY 23 Dec 00:09:58 00:18:39 73° 93° (E) 00:27:19 435.215
AIST 2 23 Dec 00:10:30 00:13:20 17° 251° (WSW) 00:16:07 435.215
SPROUT 23 Dec 00:11:34 00:15:50 82° 76° (ENE) 00:20:08 437.525
SWISSCUBE 23 Dec 00:19:06 00:22:17 18° 65° (ENE) 00:25:29 437.505
ITUPSAT 1 23 Dec 00:20:47 00:23:50 17° 65° (ENE) 00:26:52 437.325
ESTCUBE 1 23 Dec 00:21:23 00:24:22 17° 267° (W) 00:27:22 437.505/2401.250
QB50P2 23 Dec 00:23:44 00:27:33 33° 289° (WNW) 00:31:23 145.880/145.840
O/OREOS (USA 219) 23 Dec 00:29:53 00:34:14 56° 107° (ESE) 00:38:37 437.305
NANOSAT C BR1 23 Dec 00:33:40 00:37:13 26° 290° (WNW) 00:40:45 145.865
POLYITAN 1 23 Dec 00:33:41 00:37:15 26° 290° (WNW) 00:40:49 437.675
UNISAT 6 23 Dec 00:39:46 00:42:52 18° 294° (WNW) 00:45:59 437.425
M-CUBED/EXP-1 PRIME 23 Dec 00:41:04 00:44:18 18° 60° (ENE) 00:47:33 437.505
BEESAT 23 Dec 00:42:32 00:46:36 28° 69° (ENE) 00:50:41 436.000
PCSat 23 Dec 00:45:26 00:48:40 16° 256° (WSW) 00:51:54 145.827
QB50P1 23 Dec 00:49:04 00:51:58 18° 293° (WNW) 00:54:53 145.935-145.965
AUBIESAT-1 23 Dec 01:46:24 01:51:13 72° 71° (ENE) 01:56:06 437.475
VERMONT LUNAR 23 Dec 01:49:09 01:52:10 27° 149° (SSE) 01:55:12 437.305
SWISSCUBE 23 Dec 01:55:11 01:59:46 45° 261° (W) 02:04:22 437.505
ITUPSAT 1 23 Dec 01:56:40 02:01:18 48° 260° (W) 02:05:57 437.325
YUBILEINY 23 Dec 02:09:50 02:16:14 22° 293° (WNW) 02:22:40 435.215
O/OREOS (USA 219) 23 Dec 02:11:48 02:14:00 13° 304° (NW) 02:16:14 437.305
M-CUBED/EXP-1 PRIME 23 Dec 02:14:05 02:18:49 54° 256° (WSW) 02:23:38 437.505
PHONESAT 2.4 23 Dec 02:15:19 02:18:27 28° 149° (SSE) 02:21:35 2401.200-2431.200
Oscar 19 23 Dec 02:19:11 02:24:25 83° 103° (ESE) 02:29:36 437.125/150
BEESAT 23 Dec 02:20:19 02:24:22 27° 264° (W) 02:28:26 436.000
STARS 23 Dec 02:32:27 02:36:42 54° 74° (ENE) 02:40:59 437.465
ITAMSAT 1 23 Dec 02:40:46 02:45:45 46° 100° (E) 02:50:42 435.822/435.867
KKS-1 23 Dec 02:41:36 02:46:00 77° 258° (WSW) 02:50:28 437.445
Gurwin Techsat 1B 23 Dec 02:51:00 02:55:53 36° 98° (E) 03:00:43 435.225
AIST 1 23 Dec 03:06:03 03:09:07 19° 74° (ENE) 03:12:10
AUBIESAT-1 23 Dec 03:24:50 03:26:32 12° 265° (W) 03:28:16 437.475
VERMONT LUNAR 23 Dec 03:26:45 03:30:17 78° 344° (NNW) 03:33:49 437.305
AO-7 23 Dec 03:46:26 03:52:49 24° 94° (E) 03:59:08 29.400- 29.500
PHONESAT 2.4 23 Dec 03:53:18 03:56:56 78° 345° (NNW) 04:00:34 2401.200-2431.200
Oscar 19 23 Dec 04:01:14 04:03:00 12° 299° (WNW) 04:04:46 437.125/150
HORYU 2 23 Dec 04:06:54 04:11:27 83° 103° (ESE) 04:15:57 437.375
MOZHAYETS 4 23 Dec 04:10:12 04:14:08 28° 70° (ENE) 04:18:04
STARS 23 Dec 04:11:51 04:13:28 12° 268° (W) 04:15:06 437.465
GONETS M04 23 Dec 04:14:09 04:18:35 15° 77° (ENE) 04:22:59
ITAMSAT 1 23 Dec 04:21:12 04:24:52 20° 295° (WNW) 04:28:32 435.822/435.867
JAS-2 23 Dec 04:30:36 04:32:34 12° 89° (E) 04:34:30 435.910
Gurwin Techsat 1B 23 Dec 04:31:19 04:35:38 26° 293° (WNW) 04:39:57 435.225
SO-50 23 Dec 04:38:30 04:41:34 16° 44° (NE) 04:44:39 436.795
AIST 1 23 Dec 04:43:06 04:46:47 29° 270° (W) 04:50:28
VERMONT LUNAR 23 Dec 05:05:21 05:08:47 50° 1° (N) 05:12:14 437.305
STRAND 1 23 Dec 05:21:07 05:22:37 11° 61° (ENE) 05:24:08 437.568
PRISM 23 Dec 05:31:46 05:35:26 29° 70° (ENE) 05:39:05 437.425
PHONESAT 2.4 23 Dec 05:32:17 05:35:50 51° 2° (N) 05:39:22 2401.200-2431.200
AO-7 23 Dec 05:37:50 05:46:08 69° 291° (WNW) 05:54:23 29.400- 29.500
CUBESAT XI-V 23 Dec 05:41:43 05:44:57 19° 67° (ENE) 05:48:10 437.345
MOZHAYETS 4 23 Dec 05:47:23 05:51:16 26° 265° (W) 05:55:11
Cubesat XI-IV 23 Dec 05:58:01 06:01:30 17° 93° (E) 06:04:57 437.490
GONETS M04 23 Dec 06:05:08 06:13:59 86° 95° (E) 06:22:52
JAS-2 23 Dec 06:12:53 06:18:21 66° 286° (WNW) 06:23:28 435.910
SO-50 23 Dec 06:17:44 06:22:38 72° 242° (WSW) 06:27:30 436.795
CUTE-I 23 Dec 06:29:24 06:34:14 35° 98° (E) 06:39:03 437.470
VERMONT LUNAR 23 Dec 06:43:44 06:47:16 88° 199° (SSW) 06:50:47 437.305
STRAND 1 23 Dec 06:55:58 07:01:04 83° 257° (WSW) 07:06:12 437.568
PRISM 23 Dec 07:07:45 07:10:56 21° 265° (W) 07:14:08 437.425
PHONESAT 2.4 23 Dec 07:11:02 07:14:40 86° 198° (SSW) 07:18:18 2401.200-2431.200
